User: anonymous   Login
Location: Unspecified
(0.0000°N, 0.0000°E)
Time: 20:40:35
(UTC+00:00)
Language:

Vela 3B - Orbit

View from above orbital plane
View from above orbital plane
View from above satellite
View from above satellite

Ground track
Ground track

The orbit data is extracted from the following two-line orbital elements,

1 01459U 65058B   16145.25197219 -.00000584  00000-0  00000+0 0  9993
2 01459   7.1183  64.5036 4443635 290.9454   1.5028  0.21416187 40175
Epoch (UTC): 24 May 2016 06:02:50
Eccentricity: 0.4443635
inclination: 7.1183°
perigee height: 59190 km
apogee height: 164065 km
right ascension of ascending node: 64.5036°
argument of perigee: 290.9454°
revolutions per day: 0.21416187
mean anomaly at epoch: 1.5028°
orbit number at epoch: 4017

The dashed part of the orbit path shows where the satellite is in the earth's shadow,  

DLR